カタログに戻る

STARLINK-5794

運用中通信VLEO
NORAD 56006·PAYLOAD·🇺🇸 United States

打ち上げ Mar 24, 2023 から Cape Canaveral Space Force Station

Loading…

次のパス (今後24時間)

TLE

最新Source: CelesTrak SupGP

元期: Sep 14, 2026, 21:24 UTC

1 56006C 23042W   26257.89215278  .00034999  00000+0  12679-2 0  2579
2 56006  43.0012  78.7275 0001364 273.1285 170.0582 15.27554924    15

AllMySatでSTARLINK-5794をリアルタイム追跡

Download on the App Store